Flag for Germany Weather past 2 weeks in Leutkirch im Allgäu, Baden-Württemberg, Germany

Now
60 °F

Scattered clouds.


Feels Like: 60 °F
Forecast: 47 / 60 °F
Wind: 2 mph from South

Location: Kempten

Current Time: Aug 31, 2014 at 11:15:34 AM

Latest Report: Aug 31, 2014 at 10:00 AM


Visibility: 28 mi

Pressure: 29.98 "Hg

Humidity: 79%

Dew point: 53 °F

Location of Leutkirch im AllgäuLocation

Historic Weather in Leutkirch im Allgäu — Graph

°F

Leutkirch im Allgäu temperature yesterday

Maximum temperature yesterday: 69 °F (at 7:00 PM)
Minimum temperature yesterday: 59 °F (at 7:00 AM)
Average temperature yesterday: 63 °F

Past Weeks' High & Low Weather Summary

 TemperatureHumidityPressure
High71 °F (Aug 29, 3:00 PM)100% (Aug 19, 6:00 AM)30.21 "Hg (Aug 19, 6:00 AM)
Low40 °F (Aug 25, 5:00 AM)43% (Aug 22, 3:00 PM)29.75 "Hg (Aug 26, 3:00 PM)
Average57 °F79%30.01 "Hg
* Reported Aug 16 10:00 AM — Aug 31 10:00 AM, Leutkirch im Allgäu, Weather by CustomWeather, © 2014

Note: Actual official high and low records may vary slightly from our data, if they occured in-between our weather recording intervals... More about our weather records

Advertising

Leutkirch im Allgäu weather history for previous 24 hours

 ConditionsComfort  
Time TempWeatherWind HumidityBarometerVisibility
10:00 AM
Aug 31
60 °FScattered clouds.2 mph79%29.98 "Hg28 mi
9:00 AM58 °FPartly sunny.2 mph88%30.00 "Hg25 mi
8:00 AM56 °FOvercast.1 mph91%30.02 "Hg22 mi
7:00 AM55 °FOvercast.1 mph92%30.02 "Hg22 mi
6:00 AM55 °FOvercast.1 mph94%30.02 "Hg17 mi
5:00 AM55 °FOvercast.2 mph92%30.01 "Hg22 mi
4:00 AM56 °FOvercast.2 mph92%30.03 "Hg22 mi
3:00 AM56 °FOvercast.2 mph93%30.04 "Hg19 mi
2:00 AM56 °FOvercast.1 mph96%30.06 "Hg12 mi
1:00 AM56 °FPassing clouds.2 mph96%30.06 "Hg15 mi
12:00 AM58 °FOvercast.No wind94%30.07 "Hg18 mi
10:00 PM
Aug 30
60 °FOvercast.1 mph88%30.07 "Hg19 mi
9:00 PM60 °FPassing clouds.1 mph87%30.06 "Hg22 mi
8:00 PM65 °FSunny.1 mph71%30.03 "Hg37 mi
7:00 PM69 °FSunny.2 mph58%30.00 "Hg37 mi
6:00 PM69 °FPartly sunny.2 mph62%30.01 "Hg34 mi
4:00 PM69 °FOvercast.2 mph62%30.02 "Hg31 mi
3:00 PM68 °FOvercast.1 mph65%30.03 "Hg34 mi
2:00 PM68 °FPartly sunny.2 mph64%30.05 "Hg25 mi
1:00 PM68 °FPartly sunny.1 mph65%30.06 "Hg31 mi
12:00 PM65 °FOvercast.2 mph68%30.09 "Hg25 mi
Weather by CustomWeather, © 2014

See weather overviewHow to use our weather pages